Tiempo atmosférico en la estación meteorológica de La Riba de Escalote, Soria (1042 m.)



Fecha
DESCASC
Temp. máxima en grados centígrados (hora)
DESCASC
Temp. mínima en grados centígrados (hora)
DESCASC
Temp. media en grados centígrados
DESCASC
Racha de viento máxima en m/sg (hora)
DESCASC
Velocidad máxima media en intervalos de 10 minutos(hora)
DESCASC
Precipitaciones diarias en mm
DESCASC
Precipitaciones de 00:00 a 06:00 en mm
DESCASC
Precipitaciones de 06:00 a 12:00 en mm
DESCASC
Precipitaciones de 12:00 a 18:00 en mm
DESCASC
Precipitaciones de 18:00 a 24:00 en mm
DESCASC
13-01-2021 1.8 (16:40) -9 (06:10) -3.6 7.78 (00:20) 4.44 (00:20) 0 0 0 0 0
12-01-2021 -0.7 (16:40) -12.5 (06:50) -6.6 7.78 (23:50) 6.11 (23:50) 0 0 0 0 0
11-01-2021 -0.1 (16:10) -7.7 (06:10) -3.9 9.72 (11:50) 6.67 (11:50) 0 0 0 0 0
10-01-2021 0.3 (13:50) -6.9 (23:59) -3.3 9.44 (07:50) 6.67 (08:00) 1.2 0 1 0.2 0
09-01-2021 -2.8 (23:59) -4.5 (-00:0) -3.6 13.89 (08:30) 10.28 (08:30) 0 0 0 0 0
08-01-2021 -2.1 (14:20) -12 (-00:0) -7 8.61 (23:40) 6.11 (23:50) 0 0 0 0 0
07-01-2021 -1.2 (16:30) -9.5 (-00:0) -5.4 3.89 (13:30) 2.5 (13:30) 0 0 0 0 0
06-01-2021 2.1 (16:30) -10.2 (-00:0) -4 4.72 (16:00) 2.5 (17:50) 0 0 0 0 0
05-01-2021 1.6 (15:50) -6.8 (-00:0) -2.6 7.22 (10:40) 5 (15:10) 0.2 0 0 0.2 0
04-01-2021 0.2 (13:40) -4.5 (-00:0) -2.1 14.17 (10:30) 10 (15:30) 0 0 0 0 0
03-01-2021 1.6 (15:50) -3.3 (-00:0) -0.8 14.17 (16:00) 10.83 (15:20) 0 0 0 0 0
02-01-2021 0 (15:40) -3.3 (-00:0) -1.6 22.22 (08:10) 15.83 (07:50) 0 0 0 0 0
01-01-2021 0.7 (00:00) -2.8 (-00:0) -1 18.06 (14:20) 12.78 (14:20) 1.2 0.6 0.2 0.4 0
31-12-2020 5 (13:20) -0.5 (-00:0) 2.3 12.5 (13:50) 9.17 (13:50) 2.6 0 0 0.4 2.2
30-12-2020 2.1 (15:10) -2.3 (-00:0) -0.1 16.67 (04:40) 11.67 (03:50) 0 0 0 0 0
29-12-2020 3.1 (16:20) -0.9 (-00:0) 1.1 15.83 (13:00) 12.22 (13:10) 0.4 0 0 0.4 0
28-12-2020 7 (02:20) 0.3 (00:00) 3.7 28.33 (02:00) 20.28 (02:00) 2.4 2.4 0 0 0
27-12-2020 2.2 (15:30) -4 (-00:0) -0.9 18.61 (23:10) 13.61 (16:20) 0 0 0 0 0
26-12-2020 4.4 (15:00) -2.8 (-00:0) 0.8 15 (15:30) 11.11 (15:40) 0 0 0 0 0
25-12-2020 3.2 (14:50) -2.8 (-00:0) 0.2 11.94 (13:30) 8.61 (13:40) 0 0 0 0 0
24-12-2020 6.2 (16:00) -0.4 (00:00) 2.9 9.44 (13:50) 6.11 (13:50) 1.4 1.2 0 0.2 0
23-12-2020 10.9 (12:50) 5.5 (22:20) 8.2 12.5 (03:40) 10 (03:50) 0.4 0 0 0 0.4
21-12-2020 10.9 (14:30) 1.3 (00:00) 6.1 10.56 (15:30) 7.78 (15:30) 0 0 0 0 0
20-12-2020 7.6 (16:10) 1.3 (00:00) 4.4 8.33 (10:30) 5.83 (10:30) 0.2 0.2 0 0 0
19-12-2020 6.3 (02:40) 5.2 (00:00) 5.8 14.72 (12:20) 11.11 (04:50) 1.8 0 0.2 1 0.6
18-12-2020 8.6 (14:40) 1.2 (00:00) 4.9 12.78 (23:40) 9.72 (23:40) 0.2 0.2 0 0 0
17-12-2020 8.5 (12:50) 0.9 (00:00) 4.7 6.67 (00:50) 3.89 (14:30) 0 0 0 0 0

Gráficas

Temp. máximas Temp. mínimas Temp. medias Precipitaciones Rachas de viento máximas Velocidades máximas media en intervalos de 10 minutos

Datos horarios

Fecha y hora oficial Temperatura (ºC) Velocidad del viento (km/h) Dirección del viento Racha (km/h) Dirección de racha Precipitación (mm) Presión (hPa) Tendencia (hPa) Humedad (%)
2021-01-15 23:00:00 -0.9 11 Noroeste 21 Oeste 0 -- -- 90
2021-01-15 22:00:00 0.2 15 Noroeste 24 Noroeste 0 -- -- 88
2021-01-15 21:00:00 0.3 8 Noroeste 23 Oeste 0 -- -- 90
2021-01-15 20:00:00 1.2 9 Oeste 22 Oeste 0 -- -- 88
2021-01-15 19:00:00 1.6 8 Noroeste 21 Noroeste 0 -- -- 86
2021-01-15 18:00:00 2.1 7 Noroeste 26 Oeste 0 -- -- 84
2021-01-15 17:00:00 2.9 14 Oeste 32 Oeste 0 -- -- 83
2021-01-15 16:00:00 3.6 26 Noroeste 35 Noroeste 0 -- -- 78
2021-01-15 15:00:00 3.8 17 Noroeste 28 Noroeste 0 -- -- 76
2021-01-15 14:00:00 3.2 26 Noroeste 33 Noroeste 0 -- -- 79
2021-01-15 13:00:00 2.6 23 Noroeste 35 Noroeste 0 -- -- 83
2021-01-15 12:00:00 1.9 29 Noroeste 36 Oeste 0 -- -- 86
2021-01-15 11:00:00 1.4 23 Noroeste 37 Noroeste 0 -- -- 89
2021-01-15 10:00:00 0.3 23 Noroeste 31 Noroeste 0 -- -- 94
2021-01-15 09:00:00 -1.2 14 Noroeste 30 Noroeste 0 -- -- 93
2021-01-15 08:00:00 -0.5 23 Noroeste 33 Noroeste 0 -- -- 95
2021-01-15 07:00:00 -0.1 25 Noroeste 37 Oeste 0 -- -- 94
2021-01-15 06:00:00 0 19 Noroeste 37 Noroeste 0 -- -- 94
2021-01-15 05:00:00 0.7 27 Noroeste 39 Noroeste 0 -- -- 95
2021-01-15 04:00:00 0.7 21 Noroeste 41 Noroeste 0 -- -- 94
2021-01-15 03:00:00 1.4 26 Noroeste 40 Noroeste 0 -- -- 95
2021-01-15 02:00:00 1.7 28 Noroeste 51 Noroeste 0 -- -- 95
2021-01-15 01:00:00 1.5 13 Noroeste 27 Noroeste 0 -- -- 98
2021-01-15 00:00:00 0.5 6 Norte 27 Noroeste 0 -- -- 97
2021-01-14 23:00:00 -0.3 3 Nordeste 15 Noroeste 0 -- -- 95
2021-01-14 22:00:00 0.1 4 Noroeste 13 Oeste 0 -- -- 98
2021-01-14 21:00:00 0.4 2 Norte 16 Noroeste 0 -- -- 92
2021-01-14 20:00:00 0.3 2 Norte 24 Noroeste 0 -- -- 88
2021-01-14 19:00:00 0.6 2 Norte 6 Norte 0 -- -- 82
2021-01-14 18:00:00 1.4 2 Norte 26 Noroeste 0 -- -- 75
2021-01-14 17:00:00 4.2 17 Noroeste 36 Noroeste 0 -- -- 61
2021-01-14 16:00:00 3.3 10 Noroeste 15 Noroeste 0 -- -- 65
2021-01-14 15:00:00 1 3 Este 18 Noroeste 0 -- -- 77
2021-01-14 14:00:00 1.3 13 Noroeste 20 Oeste 0 -- -- 96
2021-01-14 13:00:00 -3.2 2 Noroeste 10 Noroeste 0 -- -- 99
2021-01-14 12:00:00 -6 3 Oeste 6 Oeste 0 -- -- 96
2021-01-14 11:00:00 -7.9 0 Calma 4 Oeste 0 -- -- 96
2021-01-14 10:00:00 -9.2 0 Calma 3 Oeste 0 -- -- 94
2021-01-14 09:00:00 -10.2 0 Calma 4 Oeste 0 -- -- 94
2021-01-14 08:00:00 -12 2 Oeste 3 Oeste 0 -- -- 93
2021-01-14 07:00:00 -11.7 0 Calma 4 Oeste 0 -- -- 92
2021-01-14 06:00:00 -10.8 2 Oeste 4 Oeste 0 -- -- 93
2021-01-14 05:00:00 -9.6 3 Oeste 6 Oeste 0 -- -- 94
2021-01-14 04:00:00 -7.7 3 Noroeste 6 Noroeste 0 -- -- 94
2021-01-14 03:00:00 -5.7 2 Oeste 5 Norte 0 -- -- 95
2021-01-14 02:00:00 -4.4 2 Norte 7 Oeste 0 -- -- 94
2021-01-14 01:00:00 -4.4 4 Noroeste 10 Norte 0 -- -- 92
2021-01-14 00:00:00 -3.6 3 Noroeste 8 Norte 0 -- -- 89
2021-01-13 23:00:00 -3.5 4 Noroeste 9 Norte 0 -- -- 84
2021-01-13 22:00:00 -2.2 3 Oeste 9 Oeste 0 -- -- 83
2021-01-13 21:00:00 -1.8 4 Noroeste 8 Noroeste 0 -- -- 83
2021-01-13 20:00:00 -1.4 0 Calma 13 Noroeste 0 -- -- 86
2021-01-13 19:00:00 -0.7 3 Noroeste 9 Norte 0 -- -- 87
2021-01-13 18:00:00 0.3 3 Nordeste 13 Norte 0 -- -- 79
2021-01-13 17:00:00 1.6 6 Noroeste 11 Norte 0 -- -- 79
2021-01-13 16:00:00 1.5 5 Noroeste 10 Norte 0 -- -- 79
2021-01-13 15:00:00 0.6 4 Norte 12 Nordeste 0 -- -- 84
2021-01-13 14:00:00 -0.6 4 Nordeste 8 Nordeste 0 -- -- 84
2021-01-13 13:00:00 -0.9 2 Norte 11 Noroeste 0 -- -- 87
2021-01-13 12:00:00 -3.3 4 Norte 14 Nordeste 0 -- -- 93
2021-01-13 11:00:00 -3.8 3 Nordeste 15 Norte 0 -- -- 97
2021-01-13 10:00:00 -5.6 9 Norte 15 Norte 0 -- -- 96
2021-01-13 09:00:00 -6.6 4 Norte 17 Noroeste 0 -- -- 96
2021-01-13 08:00:00 -8 2 Norte 6 Norte 0 -- -- 95
2021-01-13 07:00:00 -8.3 0 Calma 4 Noroeste 0 -- -- 95
2021-01-13 06:00:00 -8.9 2 Noroeste 8 Nordeste 0 -- -- 94
2021-01-13 05:00:00 -7.8 2 Noroeste 5 Oeste 0 -- -- 93
2021-01-13 04:00:00 -7.9 5 Oeste 7 Oeste 0 -- -- 95
2021-01-13 03:00:00 -6.7 3 Oeste 6 Norte 0 -- -- 93
2021-01-13 02:00:00 -5.9 3 Noroeste 9 Oeste 0 -- -- 89
2021-01-13 01:00:00 -4 3 Noroeste 28 Noroeste 0 -- -- 88
2021-01-13 00:00:00 -2.8 17 Noroeste 28 Noroeste 0 -- -- 87
2021-01-12 23:00:00 -3.5 6 Noroeste 21 Noroeste 0 -- -- 87
2021-01-12 22:00:00 -2.3 15 Noroeste 24 Noroeste 0 -- -- 85
2021-01-12 21:00:00 -3.3 3 Noroeste 18 Noroeste 0 -- -- 88
2021-01-12 20:00:00 -3 5 Noroeste 17 Oeste 0 -- -- 87
2021-01-12 19:00:00 -2.5 4 Noroeste 25 Noroeste 0 -- -- 85
2021-01-12 18:00:00 -1.7 6 Norte 14 Noroeste 0 -- -- 81
2021-01-12 17:00:00 -1.4 6 Norte 10 Nordeste 0 -- -- 81
2021-01-12 16:00:00 -1.4 6 Noroeste 9 Noroeste 0 -- -- 82
2021-01-12 15:00:00 -1.8 4 Noroeste 9 Nordeste 0 -- -- 89
2021-01-12 14:00:00 -2.7 0 Calma 6 Oeste 0 -- -- 97
2021-01-12 13:00:00 -6.6 3 Oeste 7 Oeste 0 -- -- 96
2021-01-12 12:00:00 -8.8 0 Calma 3 Sudoeste 0 -- -- 95
2021-01-12 11:00:00 -10.5 0 Calma 2 Oeste 0 -- -- 93
2021-01-12 10:00:00 -11 0 Calma 2 Este 0 -- -- 93
2021-01-12 09:00:00 -11.8 0 Calma 4 Noroeste 0 -- -- 92
2021-01-12 08:00:00 -11.3 0 Calma 5 Oeste 0 -- -- 94
2021-01-12 07:00:00 -12.3 4 Oeste 5 Oeste 0 -- -- 93
2021-01-12 06:00:00 -11.3 0 Calma 3 Oeste 0 -- -- 94
2021-01-12 05:00:00 -11.1 0 Calma 4 Norte 0 -- -- 94
2021-01-12 04:00:00 -9.7 2 Nordeste 4 Norte 0 -- -- 94
2021-01-12 03:00:00 -9.2 2 Oeste 4 Nordeste 0 -- -- 92
2021-01-12 02:00:00 -8.2 2 Este 9 Norte 0 -- -- 90
2021-01-12 01:00:00 -6.4 5 Nordeste 11 Norte 0 -- -- 87
2021-01-12 00:00:00 -5.6 8 Norte 11 Noroeste 0 -- -- 83
2021-01-11 23:00:00 -4.7 6 Noroeste 20 Noroeste 0 -- -- 81
2021-01-11 22:00:00 -4.1 12 Noroeste 20 Noroeste 0 -- -- 79
2021-01-11 21:00:00 -3.4 9 Noroeste 20 Oeste 0 -- -- 76
2021-01-11 20:00:00 -2.9 15 Noroeste 29 Oeste 0 -- -- 76
2021-01-11 19:00:00 -3.2 5 Noroeste 22 Oeste 0 -- -- 79
2021-01-11 18:00:00 -1.8 10 Noroeste 23 Noroeste 0 -- -- 76
2021-01-11 17:00:00 -0.4 12 Noroeste 24 Noroeste 0 -- -- 71
2021-01-11 16:00:00 -0.2 15 Noroeste 30 Noroeste 0 -- -- 72
2021-01-11 15:00:00 -0.3 14 Noroeste 27 Noroeste 0 -- -- 72
2021-01-11 14:00:00 -0.7 17 Noroeste 30 Noroeste 0 -- -- 73
2021-01-11 13:00:00 -1.5 22 Noroeste 32 Noroeste 0 -- -- 75
2021-01-11 12:00:00 -2.2 24 Noroeste 35 Noroeste 0 -- -- 76
2021-01-11 11:00:00 -3.5 17 Noroeste 31 Noroeste 0 -- -- 80
2021-01-11 10:00:00 -5 9 Noroeste 19 Noroeste 0 -- -- 83
2021-01-11 09:00:00 -6.6 4 Noroeste 15 Noroeste 0 -- -- 86
2021-01-11 08:00:00 -6.5 5 Noroeste 18 Noroeste 0 -- -- 84
2021-01-11 07:00:00 -6.7 15 Noroeste 27 Oeste 0 -- -- 85
2021-01-11 06:00:00 -7.5 8 Oeste 15 Oeste 0 -- -- 87
2021-01-11 05:00:00 -7.2 4 Noroeste 12 Oeste 0 -- -- 89
2021-01-11 04:00:00 -6.9 6 Noroeste 17 Oeste 0 -- -- 86
2021-01-11 03:00:00 -6.5 10 Oeste 16 Oeste 0 -- -- 85
2021-01-11 02:00:00 -6.8 6 Oeste 14 Oeste 0 -- -- 87
2021-01-11 01:00:00 -7.3 3 Noroeste 13 Noroeste 0 -- -- 90
2021-01-11 00:00:00 -6.9 0 Calma 13 Oeste 0 -- -- 90
2021-01-10 23:00:00 -5.9 8 Oeste 12 Oeste 0 -- -- 90
2021-01-10 22:00:00 -4.2 5 Oeste 13 Noroeste 0 -- -- 89
2021-01-10 21:00:00 -2.6 8 Noroeste 13 Noroeste 0 -- -- 89
2021-01-10 20:00:00 -1.9 5 Noroeste 12 Noroeste 0 -- -- 90
2021-01-10 19:00:00 -1.4 8 Noroeste 14 Noroeste 0 -- -- 90
2021-01-10 18:00:00 -0.9 10 Noroeste 14 Noroeste 0 -- -- 89
2021-01-10 17:00:00 -0.5 5 Norte 13 Noroeste 0 -- -- 84
2021-01-10 16:00:00 -0.2 7 Noroeste 11 Noroeste 0 -- -- 83
2021-01-10 15:00:00 0 10 Norte 15 Norte 0 -- -- 81
2021-01-10 14:00:00 0.3 5 Norte 6 Nordeste 0 -- -- 79
2021-01-10 13:00:00 -0.2 7 Norte 11 Norte 0.2 -- -- 81
2021-01-10 12:00:00 -0.6 4 Norte 23 Nordeste 0.8 -- -- 84
2021-01-10 11:00:00 -1.6 18 Nordeste 30 Nordeste 0.2 -- -- 86
2021-01-10 10:00:00 -2.4 7 Nordeste 18 Nordeste 0 -- -- 87
2021-01-10 09:00:00 -2.7 12 Nordeste 33 Nordeste 0 -- -- 85
2021-01-10 08:00:00 -2.3 24 Nordeste 34 Nordeste 0 -- -- 85
2021-01-10 07:00:00 -2.5 7 Nordeste 15 Nordeste 0 -- -- 93
2021-01-10 06:00:00 -2.6 4 Nordeste 15 Nordeste 0 -- -- 95
2021-01-10 05:00:00 -2.8 9 Nordeste 12 Nordeste 0 -- -- 98
2021-01-10 04:00:00 -3.2 0 Calma 4 Norte 0 -- -- 98
2021-01-10 03:00:00 -3.2 0 Calma 5 Sudoeste 0 -- -- 98
2021-01-10 02:00:00 -3.1 3 Nordeste 11 Este 0 -- -- 97
2021-01-10 01:00:00 -2.9 8 Este 21 Sudeste 0 -- -- 97
2021-01-10 00:00:00 -2.8 11 Este 19 Sudeste 0 -- -- 97
2021-01-09 23:00:00 -3.1 8 Este 17 Este 0 -- -- 97
2021-01-09 22:00:00 -3.3 9 Este 24 Este 0 -- -- 97
2021-01-09 21:00:00 -3.4 14 Este 24 Este 0 -- -- 97
2021-01-09 20:00:00 -3.4 16 Este 35 Este 0 -- -- 97
2021-01-09 19:00:00 -3.4 27 Este 41 Este 0 -- -- 96
2021-01-09 18:00:00 -3.4 34 Sudeste 42 Sudeste 0 -- -- 97
2021-01-09 17:00:00 -3.4 24 Este 34 Este 0 -- -- 96
2021-01-09 16:00:00 -3.4 23 Este 30 Este 0 -- -- 96
2021-01-09 15:00:00 -3.4 21 Este 28 Este 0 -- -- 95
2021-01-09 14:00:00 -3.8 19 Este 33 Este 0 -- -- 97
2021-01-09 13:00:00 -4.2 28 Este 42 Este 0 -- -- 97
2021-01-09 12:00:00 -4.1 30 Este 44 Este 0 -- -- 97
2021-01-09 11:00:00 -3.9 30 Este 45 Este 0 -- -- 98
2021-01-09 10:00:00 -4 29 Este 46 Este 0 -- -- 98
2021-01-09 09:00:00 -4.1 35 Este 50 Este 0 -- -- 97
2021-01-09 08:00:00 -3.9 33 Este 41 Este 0 -- -- 97
2021-01-09 07:00:00 -4 29 Este 40 Este 0 -- -- 97
2021-01-09 06:00:00 -4.3 26 Este 37 Nordeste 0 -- -- 97
2021-01-09 05:00:00 -4.5 25 Nordeste 33 Nordeste 0 -- -- 97
2021-01-09 04:00:00 -4.4 24 Este 33 Este 0 -- -- 97
2021-01-09 03:00:00 -4.3 22 Este 35 Este 0 -- -- 97
2021-01-09 02:00:00 -4.3 25 Este 37 Este 0 -- -- 97
2021-01-09 01:00:00 -4.3 23 Este 36 Este 0 -- -- 98
2021-01-09 00:00:00 -4.3 21 Este 31 Nordeste 0 -- -- 97
2021-01-08 23:00:00 -3.8 15 Nordeste 30 Este 0 -- -- 98
2021-01-08 22:00:00 -3.4 18 Este 27 Este 0 -- -- 97
2021-01-08 21:00:00 -3.4 18 Este 23 Este 0 -- -- 96
2021-01-08 20:00:00 -3.5 14 Este 20 Este 0 -- -- 96
2021-01-08 19:00:00 -3.2 9 Este 13 Este 0 -- -- 95
2021-01-08 18:00:00 -3 7 Este 14 Este 0 -- -- 94
2021-01-08 17:00:00 -2.9 5 Este 22 Este 0 -- -- 92
2021-01-08 16:00:00 -3.2 17 Este 24 Este 0 -- -- 90
2021-01-08 15:00:00 -3 17 Sudeste 25 Sudeste 0 -- -- 90
2021-01-08 14:00:00 -2.3 17 Este 22 Este 0 -- -- 84
2021-01-08 13:00:00 -2.9 13 Este 25 Sudeste 0 -- -- 90
2021-01-08 12:00:00 -3.4 12 Este 17 Sudeste 0 -- -- 97
2021-01-08 11:00:00 -4.6 3 Sudeste 4 Sudeste 0 -- -- 98
2021-01-08 10:00:00 -6.6 0 Calma 2 Norte 0 -- -- 97
2021-01-08 09:00:00 -8.4 0 Calma 2 Sur 0 -- -- 96
2021-01-08 08:00:00 -9.9 0 Calma 3 Oeste 0 -- -- 94
2021-01-08 07:00:00 -11.6 0 Calma 2 Este 0 -- -- 92
2021-01-08 06:00:00 -11.8 0 Calma 2 Este 0 -- -- 92
2021-01-08 05:00:00 -11.5 0 Calma 2 Sudeste 0 -- -- 92
2021-01-08 04:00:00 -11.4 0 Calma 2 Sudeste 0 -- -- 92
2021-01-08 03:00:00 -11 0 Calma 2 Sudeste 0 -- -- 92
2021-01-08 02:00:00 -10.7 0 Calma 2 Sudeste 0 -- -- 92
2021-01-08 01:00:00 -10.2 0 Calma 3 Sudeste 0 -- -- 93
2021-01-08 00:00:00 -9.5 0 Calma 2 Noroeste 0 -- -- 92
2021-01-07 23:00:00 -8.8 0 Calma 4 Oeste 0 -- -- 92
2021-01-07 22:00:00 -7.8 2 Sudeste 4 Oeste 0 -- -- 91
2021-01-07 21:00:00 -6.3 0 Calma 2 Este 0 -- -- 90
2021-01-07 20:00:00 -5.2 0 Calma 3 Noroeste 0 -- -- 88
2021-01-07 19:00:00 -3.3 0 Calma 6 Sudeste 0 -- -- 84
2021-01-07 18:00:00 -2.3 5 Sudeste 9 Este 0 -- -- 79
2021-01-07 17:00:00 -1.2 4 Este 10 Este 0 -- -- 77
2021-01-07 16:00:00 -1.4 7 Sudeste 10 Sudeste 0 -- -- 82
2021-01-07 15:00:00 -1.6 6 Sudeste 14 Sudeste 0 -- -- 81
2021-01-07 14:00:00 -1.7 9 Sudeste 14 Este 0 -- -- 80
2021-01-07 13:00:00 -2.3 6 Este 12 Este 0 -- -- 88
2021-01-07 12:00:00 -3.5 0 Calma 2 Noroeste 0 -- -- 94
2021-01-07 11:00:00 -4.7 0 Calma 4 Sudoeste 0 -- -- 95
2021-01-07 10:00:00 -6 0 Calma 4 Sudeste 0 -- -- 93
2021-01-07 09:00:00 -6.8 0 Calma 3 Sudeste 0 -- -- 93
2021-01-07 08:00:00 -7.1 0 Calma 2 Sur 0 -- -- 93
2021-01-07 07:00:00 -7.4 0 Calma 4 Oeste 0 -- -- 93
2021-01-07 06:00:00 -7.4 4 Oeste 5 Oeste 0 -- -- 94
2021-01-07 05:00:00 -7.6 0 Calma 2 Oeste 0 -- -- 92
2021-01-07 04:00:00 -7.6 0 Calma 3 Sudeste 0 -- -- 92
2021-01-07 03:00:00 -7.4 2 Oeste 2 Oeste 0 -- -- 92
2021-01-07 02:00:00 -7.8 2 Sudeste -- -- 0 -- -- 91
2021-01-07 01:00:00 -7.4 0 Calma 2 Sudeste 0 -- -- 91
2021-01-07 00:00:00 -7.1 0 Calma 2 Noroeste 0 -- -- 90
2021-01-06 23:00:00 -6.5 0 Calma 4 Este 0 -- -- 89
2021-01-06 22:00:00 -5.7 0 Calma 3 Este 0 -- -- 88
2021-01-06 21:00:00 -4.9 0 Calma 3 Oeste 0 -- -- 86
2021-01-06 20:00:00 -3.6 0 Calma 7 Este 0 -- -- 82
2021-01-06 19:00:00 -2.2 0 Calma 9 Sudeste 0 -- -- 78
2021-01-06 18:00:00 -1.1 9 Sudeste 11 Sudeste 0 -- -- 73
2021-01-06 17:00:00 1.3 5 Sudeste 8 Sudeste 0 -- -- 63
2021-01-06 16:00:00 1.9 4 Noroeste 17 Noroeste 0 -- -- 60
2021-01-06 15:00:00 1.1 8 Nordeste 16 Nordeste 0 -- -- 66
2021-01-06 14:00:00 1.4 4 Sudeste 10 Oeste 0 -- -- 73
2021-01-06 13:00:00 0.4 2 Sudeste 6 Noroeste 0 -- -- 82
2021-01-06 12:00:00 -1.8 0 Calma 5 Nordeste 0 -- -- 96
2021-01-06 11:00:00 -5.4 2 Sudeste 4 Sudeste 0 -- -- 95
2021-01-06 10:00:00 -7.8 2 Sudeste 4 Sudeste 0 -- -- 95
2021-01-06 09:00:00 -10 0 Calma 2 Sudeste 0 -- -- 93
2021-01-06 08:00:00 -9.9 0 Calma 0 Calma 0 -- -- 93
2021-01-06 07:00:00 -9.7 0 Calma 2 Este 0 -- -- 93
2021-01-06 06:00:00 -9.2 0 Calma 2 Sudeste 0 -- -- 93
2021-01-06 05:00:00 -9 3 Sudeste 4 Sudeste 0 -- -- 93
2021-01-06 04:00:00 -8.4 0 Calma 3 Sudeste 0 -- -- 93
2021-01-06 03:00:00 -8.1 0 Calma 3 Sudeste 0 -- -- 93
2021-01-06 02:00:00 -7.7 0 Calma 3 Sudeste 0 -- -- 93
2021-01-06 01:00:00 -7 0 Calma 2 Este 0 -- -- 92
2021-01-06 00:00:00 -6.8 2 Sudeste 4 Sudeste 0 -- -- 91
2021-01-05 23:00:00 -6.2 2 Sudeste 6 Oeste 0 -- -- 90
2021-01-05 22:00:00 -5.4 3 Oeste 10 Oeste 0 -- -- 88
2021-01-05 21:00:00 -4.3 7 Oeste 10 Oeste 0 -- -- 86
2021-01-05 20:00:00 -3.5 6 Oeste 10 Oeste 0 -- -- 84
2021-01-05 19:00:00 -2.2 9 Oeste 12 Oeste 0 -- -- 82
2021-01-05 18:00:00 -0.6 7 Oeste 19 Noroeste 0 -- -- 79
2021-01-05 17:00:00 1.1 13 Noroeste 22 Oeste 0 -- -- 70
2021-01-05 16:00:00 1.6 16 Noroeste 24 Noroeste 0 -- -- 66
2021-01-05 15:00:00 1.2 16 Noroeste 24 Noroeste 0 -- -- 73
2021-01-05 14:00:00 0.1 9 Noroeste 17 Nordeste 0 -- -- 85
2021-01-05 13:00:00 -0.5 8 Norte 16 Norte 0.2 -- -- 88
2021-01-05 12:00:00 -2 12 Noroeste 20 Noroeste 0 -- -- 93
2021-01-05 11:00:00 -2.6 15 Noroeste 26 Noroeste 0 -- -- 93
2021-01-05 10:00:00 -3.5 13 Noroeste 21 Noroeste 0 -- -- 95
2021-01-05 09:00:00 -4.1 10 Noroeste 18 Noroeste 0 -- -- 98
2021-01-05 08:00:00 -6 4 Oeste 8 Oeste 0 -- -- 95
2021-01-05 07:00:00 -5.7 3 Noroeste 6 Oeste 0 -- -- 95
2021-01-05 06:00:00 -6.3 0 Calma 6 Oeste 0 -- -- 95
2021-01-05 05:00:00 -6.1 4 Noroeste 11 Oeste 0 -- -- 95
2021-01-05 04:00:00 -5.2 6 Oeste 16 Oeste 0 -- -- 96
2021-01-05 03:00:00 -5.7 8 Oeste 17 Oeste 0 -- -- 96
2021-01-05 02:00:00 -4.8 8 Oeste 17 Oeste 0 -- -- 96
2021-01-05 01:00:00 -4.8 4 Oeste 8 Oeste 0 -- -- 96
2021-01-05 00:00:00 -4.4 3 Oeste 14 Oeste 0 -- -- 98
2021-01-04 23:00:00 -3.2 11 Oeste 20 Noroeste 0 -- -- 97
2021-01-04 22:00:00 -1.6 18 Noroeste 26 Noroeste 0 -- -- 98
2021-01-04 21:00:00 -2.1 12 Noroeste 28 Noroeste 0 -- -- 98
2021-01-04 20:00:00 -2.4 16 Noroeste 46 Noroeste 0 -- -- 97
2021-01-04 19:00:00 -1.5 14 Oeste 35 Oeste 0 -- -- 90
2021-01-04 18:00:00 -0.7 16 Oeste 34 Oeste 0 -- -- 82
2021-01-04 17:00:00 -0.2 21 Noroeste 37 Noroeste 0 -- -- 78
2021-01-04 16:00:00 -0.1 31 Oeste 48 Oeste 0 -- -- 75
2021-01-04 15:00:00 -0.3 35 Noroeste 47 Noroeste 0 -- -- 77
2021-01-04 14:00:00 0 32 Noroeste 50 Noroeste 0 -- -- 74
2021-01-04 13:00:00 -0.3 30 Noroeste 46 Oeste 0 -- -- 80
2021-01-04 12:00:00 -1 29 Oeste 44 Oeste 0 -- -- 81
2021-01-04 11:00:00 -0.8 29 Noroeste 51 Oeste 0 -- -- 82
2021-01-04 10:00:00 -1.7 27 Noroeste 41 Noroeste 0 -- -- 83
2021-01-04 09:00:00 -2 23 Noroeste 44 Oeste 0 -- -- 85
2021-01-04 08:00:00 -1.9 18 Noroeste 31 Noroeste 0 -- -- 86
2021-01-04 07:00:00 -1.6 23 Oeste 32 Oeste 0 -- -- 86
2021-01-04 06:00:00 -1.7 15 Oeste 20 Oeste 0 -- -- 88
2021-01-04 05:00:00 -2.9 8 Oeste 22 Oeste 0 -- -- 87
2021-01-04 04:00:00 -2.4 18 Oeste 32 Oeste 0 -- -- 87
2021-01-04 03:00:00 -2 22 Oeste 33 Oeste 0 -- -- 88
2021-01-04 02:00:00 -1.9 10 Oeste 31 Oeste 0 -- -- 89
2021-01-04 01:00:00 -0.6 23 Oeste 41 Oeste 0 -- -- 89
2021-01-04 00:00:00 -0.2 26 Oeste 41 Noroeste 0 -- -- 88
2021-01-03 23:00:00 -0.2 24 Oeste 37 Oeste 0 -- -- 92
2021-01-03 22:00:00 -1.1 22 Oeste 42 Oeste 0 -- -- 96
2021-01-03 21:00:00 -1.5 9 Noroeste 16 Oeste 0 -- -- 83
2021-01-03 20:00:00 -1.8 8 Oeste 18 Oeste 0 -- -- 82
2021-01-03 19:00:00 -1 5 Oeste 15 Oeste 0 -- -- 80
2021-01-03 18:00:00 0 9 Oeste 39 Noroeste 0 -- -- 77
2021-01-03 17:00:00 1.5 28 Noroeste 45 Noroeste 0 -- -- 72
2021-01-03 16:00:00 1.4 36 Noroeste 51 Oeste 0 -- -- 73
2021-01-03 15:00:00 1.1 34 Noroeste 49 Noroeste 0 -- -- 77
2021-01-03 14:00:00 0.1 27 Noroeste 49 Noroeste 0 -- -- 82
2021-01-03 13:00:00 -0.2 30 Oeste 44 Oeste 0 -- -- 82
2021-01-03 12:00:00 -0.6 25 Noroeste 37 Noroeste 0 -- -- 84
2021-01-03 11:00:00 -1.9 13 Noroeste 28 Oeste 0 -- -- 89
2021-01-03 10:00:00 -3 15 Noroeste 23 Noroeste 0 -- -- 90
2021-01-03 09:00:00 -3 9 Noroeste 31 Noroeste 0 -- -- 89
2021-01-03 08:00:00 -2.2 24 Noroeste 39 Noroeste 0 -- -- 88
2021-01-03 07:00:00 -3.3 23 Noroeste 35 Noroeste 0 -- -- 89
2021-01-03 06:00:00 -3 18 Noroeste 36 Noroeste 0 -- -- 88
2021-01-03 05:00:00 -2.7 26 Noroeste 42 Noroeste 0 -- -- 91
2021-01-03 04:00:00 -2.2 28 Noroeste 42 Noroeste 0 -- -- 92
2021-01-03 03:00:00 -2 30 Noroeste 48 Noroeste 0 -- -- 91
2021-01-03 02:00:00 -1.8 30 Noroeste 47 Noroeste 0 -- -- 88
2021-01-03 01:00:00 -2 28 Noroeste 49 Noroeste 0 -- -- 85
2021-01-03 00:00:00 -2.7 28 Noroeste 41 Noroeste 0 -- -- 83
2021-01-02 23:00:00 -2.9 31 Noroeste 46 Noroeste 0 -- -- 83
2021-01-02 22:00:00 -2.9 31 Noroeste 44 Noroeste 0 -- -- 86
2021-01-02 21:00:00 -2.6 26 Noroeste 41 Noroeste 0 -- -- 81
2021-01-02 20:00:00 -2.4 19 Noroeste 35 Noroeste 0 -- -- 81
2021-01-02 19:00:00 -1.7 27 Noroeste 46 Noroeste 0 -- -- 75
2021-01-02 18:00:00 -1 29 Noroeste 52 Noroeste 0 -- -- 76
2021-01-02 17:00:00 -0.6 35 Noroeste 53 Noroeste 0 -- -- 77
2021-01-02 16:00:00 -0.3 41 Noroeste 58 Noroeste 0 -- -- 74
2021-01-02 15:00:00 -0.2 35 Noroeste 57 Noroeste 0 -- -- 80
2021-01-02 14:00:00 -0.8 41 Noroeste 60 Noroeste 0 -- -- 83